Wind_Speed
31 32 32 32 33 33 34 34 34 33 34 35 35 35 34 35 35 35 35 36 36 36 37 37 38 38 38 38 39 39 40 40 40 40 40 40 40 40 41 42 42 42 42 42
32 32 32 33 33 34 35 35 35 36 36 37 37 36 35 35 35 34 35 36 36 37 37 38 38 38 38 39 39 40 40 41 41 41 41 41 41 41 41 41 42 42 43 43
33 32 33 34 34 35 35 36 36 37 37 38 38 38 36 36 36 36 36 36 37 37 37 38 38 38 39 39 39 40 41 41 42 42 43 42 42 42 42 42 42 43 44 44
33 33 34 35 35 35 36 36 37 37 38 39 39 40 36 36 36 36 36 36 37 37 38 38 38 38 39 38 39 40 41 42 42 42 43 43 43 42 42 43 43 44 44 45
33 33 34 34 34 35 36 36 37 38 39 40 40 41 37 36 36 36 36 37 37 38 38 38 38 39 39 39 40 41 41 42 42 42 43 44 44 43 43 43 43 44 44 44
32 33 33 34 35 35 36 36 37 39 40 42 40 41 39 36 35 35 37 37 38 38 39 39 39 39 40 40 40 41 41 42 42 43 44 44 44 44 43 43 43 43 44 44
31 32 33 34 35 35 35 35 36 38 40 41 40 41 39 36 35 36 37 38 38 38 38 39 39 40 41 41 41 41 41 42 42 43 44 44 44 43 43 43 43 43 43 43
31 31 32 33 34 35 36 36 36 38 40 41 40 40 39 37 36 36 37 38 38 38 38 38 39 40 40 41 41 41 42 42 43 43 43 43 43 44 43 43 43 43 42 42
30 31 32 33 34 34 36 36 36 38 40 41 41 40 38 36 36 36 36 37 37 38 39 38 38 39 40 41 41 42 42 42 43 43 43 44 44 43 43 43 43 43 43 43
30 31 31 33 33 34 35 35 36 37 40 41 42 40 38 37 36 36 36 36 36 37 38 39 39 39 39 40 41 41 42 42 43 43 43 44 44 44 44 44 44 44 45 45
31 31 32 33 33 34 34 35 36 38 39 40 42 41 38 37 37 37 37 36 36 36 37 38 39 39 39 39 40 40 41 41 41 42 42 43 44 44 44 44 44 45 45 46
30 31 32 32 33 34 35 35 36 37 38 39 40 40 38 38 37 37 36 36 36 36 37 37 38 38 39 39 40 40 41 41 41 41 42 43 44 44 44 44 44 45 46 46
31 32 33 33 33 34 35 35 36 38 39 39 40 39 38 38 38 37 36 35 35 36 36 36 37 37 37 38 39 40 40 41 41 41 42 43 43 43 44 45 45 46 47 47
31 33 33 34 34 33 34 35 35 37 39 40 39 38 37 37 37 37 37 37 37 36 36 36 36 37 38 38 38 39 40 40 40 41 41 42 42 42 43 45 46 47 47 47
31 33 33 33 33 33 34 34 35 37 38 39 38 37 36 36 36 36 36 37 37 37 37 37 37 38 38 39 39 39 39 40 40 40 40 41 41 42 43 44 45 45 45 46
32 33 33 33 32 33 34 33 34 36 36 38 38 38 37 37 37 37 36 37 38 38 38 38 38 39 39 39 38 39 39 39 40 40 41 41 42 42 43 43 43 43 44 45
31 33 35 34 34 34 34 32 33 34 34 35 36 36 37 37 38 38 38 38 37 37 37 37 38 38 38 39 39 39 39 39 40 40 40 41 41 41 42 42 43 43 44 45
30 31 32 33 33 34 33 33 33 33 33 34 35 35 36 37 37 37 38 38 37 37 37 37 37 37 37 38 38 39 40 40 40 40 40 40 41 41 42 42 42 44 45 46
30 30 31 31 32 33 32 31 31 32 32 33 34 34 35 36 36 36 37 37 37 37 37 37 37 37 38 38 38 38 38 39 39 39 39 39 40 41 42 42 43 44 44 45
28 28 29 29 30 31 30 30 30 31 32 31 32 33 34 35 36 35 36 36 36 36 36 37 37 37 37 37 36 36 37 37 37 37 38 39 40 41 41 42 42 43 43 44
27 28 28 28 28 29 29 29 29 30 31 31 31 32 33 33 34 34 34 34 34 34 35 35 35 35 35 35 36 36 36 36 37 37 37 38 38 39 40 40 41 41 41 42
26 27 28 28 28 29 28 28 28 29 30 30 31 31 31 32 32 32 33 33 33 33 33 33 34 34 34 34 34 35 35 35 36 36 36 36 37 37 38 38 39 39 40 42
25 25 25 26 27 28 28 28 28 29 29 30 30 30 30 30 30 31 31 32 32 32 33 33 33 33 33 33 34 34 35 35 36 36 36 36 36 37 37 38 38 40 41 42
25 25 26 26 26 27 27 28 28 28 29 30 30 31 31 30 30 31 31 31 31 31 32 32 32 32 32 33 33 34 35 35 36 36 36 36 37 37 37 37 38 39 40 41
25 25 26 27 27 27 27 28 28 29 30 30 31 31 32 31 31 31 30 30 31 31 31 30 30 31 31 32 33 34 35 35 35 36 36 36 36 37 37 37 38 38 39 39
24 25 26 26 27 27 27 28 29 29 30 31 31 31 31 31 31 31 30 30 30 30 30 31 31 31 31 31 32 33 34 34 34 35 35 36 36 36 37 37 37 37 37 37
Wind_Direction
258 256 256 257 257 258 258 258 260 262 263 263 263 264 263 262 262 263 263 262 262 262 261 262 262 262 263 263 263 263 263 263 263 262 263 263 262 262 262 261 260 260 260 259
259 257 257 256 257 257 258 259 260 261 261 262 263 263 263 263 262 262 263 263 263 262 262 263 263 264 264 264 264 263 263 264 264 263 262 262 262 261 261 261 261 262 261 260
260 259 256 256 257 258 259 261 262 263 263 264 265 264 263 263 262 262 263 264 264 264 264 264 264 265 264 265 265 264 263 263 264 263 262 262 262 262 263 263 262 262 262 261
260 258 257 256 257 259 261 262 263 264 265 266 266 267 262 262 263 263 264 265 266 266 266 265 265 265 265 265 265 264 264 263 264 263 263 263 262 262 262 263 262 261 261 262
261 259 257 258 259 261 262 263 264 265 265 266 266 268 265 263 263 265 265 266 266 267 267 266 266 266 266 266 265 265 264 264 264 264 263 262 263 262 262 262 262 262 262 262
262 260 259 260 260 261 263 264 265 265 266 266 266 268 267 265 266 266 266 266 266 267 267 267 267 267 266 267 266 266 266 265 265 264 263 263 263 262 262 262 262 262 263 262
262 261 261 261 261 260 262 264 266 266 267 268 268 269 269 269 269 268 268 268 267 267 268 269 268 268 267 267 267 266 266 266 265 264 263 263 262 261 262 262 262 262 262 262
263 263 262 262 262 261 261 263 265 267 269 270 270 270 271 271 271 271 270 269 269 269 269 269 269 268 268 267 267 266 266 265 265 265 264 263 263 262 262 262 261 261 261 262
265 266 265 264 263 262 262 263 265 267 270 272 272 271 271 271 272 273 272 271 270 270 269 269 269 269 268 267 266 266 266 266 265 264 263 262 262 262 262 261 261 261 261 262
267 267 267 266 264 263 264 265 266 267 270 272 273 272 273 273 273 273 273 272 272 271 270 269 269 269 268 267 267 267 267 267 265 264 263 261 261 261 261 261 261 261 262 263
268 268 268 267 266 266 265 265 266 268 270 272 274 274 274 275 274 274 274 274 273 273 272 270 269 269 269 268 267 266 266 266 266 264 263 263 262 261 261 261 261 262 263 263
268 269 268 268 267 266 265 265 266 267 271 273 274 274 275 275 275 275 275 274 274 273 273 272 270 269 268 268 267 266 265 265 265 264 263 263 263 262 261 261 261 262 262 264
268 269 269 269 269 268 267 267 267 268 269 270 272 275 275 275 275 276 276 275 274 274 273 273 271 269 268 268 268 267 266 265 264 263 263 263 263 262 261 261 261 262 263 264
269 269 269 271 273 272 270 269 269 268 269 270 272 274 273 273 275 276 275 275 275 275 274 273 272 270 269 268 267 266 266 265 264 264 264 264 263 263 263 262 262 263 264 265
270 269 270 270 271 272 272 270 269 269 270 271 273 272 272 273 273 274 275 275 275 275 274 273 272 271 270 268 268 267 266 265 265 264 264 264 265 264 265 265 265 266 266 266
271 272 271 270 271 272 272 270 270 270 270 271 272 271 272 272 272 273 274 274 274 274 273 273 272 271 269 268 267 266 265 265 265 265 265 265 265 266 266 267 267 266 266 266
274 274 273 272 271 271 271 272 272 272 272 273 273 272 273 273 273 273 273 274 274 273 272 273 272 272 270 268 266 265 265 265 266 266 266 266 266 267 268 268 268 267 267 267
278 278 278 277 274 272 274 273 273 273 273 273 273 273 274 275 275 275 274 273 274 274 274 273 273 272 272 270 267 266 266 266 266 266 266 266 266 267 268 268 268 268 268 268
279 280 280 278 277 276 275 275 275 275 276 276 275 275 276 277 278 276 274 273 272 272 272 272 272 273 272 271 269 267 266 266 266 266 266 267 268 268 269 270 270 270 270 270
278 279 279 279 280 280 279 277 276 275 276 278 279 278 278 278 278 278 276 275 274 273 271 270 270 271 271 270 269 267 267 267 266 266 267 268 269 269 271 271 271 270 271 271
278 278 278 279 280 280 280 280 278 277 278 279 280 280 280 280 280 279 278 277 276 274 272 271 270 270 270 269 268 267 266 266 267 267 268 268 269 270 271 271 271 271 272 273
280 280 279 280 280 280 281 280 278 279 280 281 281 281 281 281 281 280 279 278 277 275 274 272 271 271 270 269 268 267 267 268 268 269 270 269 270 271 272 272 273 273 273 275
280 281 281 281 280 280 279 278 279 279 280 281 282 282 281 282 281 279 279 279 278 276 275 273 272 271 270 269 268 268 268 269 269 269 270 270 272 273 273 274 275 275 276 277
282 282 282 283 283 281 279 278 279 280 281 282 282 282 282 282 282 280 279 279 279 278 277 275 273 272 271 271 271 270 270 270 270 270 271 272 273 274 274 276 277 277 278 279
285 285 283 282 282 281 280 278 277 279 280 281 282 283 283 282 281 281 280 280 280 278 277 275 274 273 273 272 272 272 271 271 270 270 270 271 272 273 275 277 278 279 280 280
286 286 286 285 283 281 282 281 281 281 282 283 283 284 284 283 282 280 280 279 279 278 277 276 275 275 274 273 272 272 271 271 270 270 271 271 272 274 275 277 279 280 281 280
Height
5698 5699 5700 5702 5702 5703 5704 5704 5705 5706 5706 5706 5706 5707 5708 5707 5707 5708 5708 5708 5708 5708 5707 5707 5707 5707 5708 5708 5708 5708 5709 5709 5709 5709 5710 5710 5711 5711 5711 5711 5712 5712 5713 5714
5689 5690 5693 5692 5693 5693 5694 5695 5696 5696 5695 5695 5696 5697 5698 5697 5698 5699 5698 5698 5698 5698 5697 5697 5697 5697 5698 5698 5698 5698 5698 5698 5698 5699 5699 5699 5699 5700 5700 5700 5701 5701 5702 5703
5680 5683 5682 5682 5683 5684 5685 5686 5687 5686 5686 5685 5685 5687 5689 5688 5688 5689 5688 5688 5688 5688 5688 5687 5687 5687 5687 5687 5687 5687 5687 5687 5687 5687 5687 5687 5688 5689 5689 5690 5690 5690 5691 5692
5670 5672 5673 5673 5674 5675 5676 5677 5676 5676 5675 5675 5676 5675 5679 5679 5679 5679 5679 5679 5678 5678 5678 5677 5677 5677 5677 5677 5676 5676 5676 5676 5676 5676 5676 5676 5676 5677 5678 5678 5678 5679 5679 5679
5661 5662 5663 5664 5666 5665 5666 5667 5666 5666 5665 5664 5665 5664 5668 5669 5669 5670 5669 5668 5668 5667 5667 5667 5667 5666 5666 5665 5665 5665 5664 5664 5664 5664 5664 5664 5664 5665 5666 5666 5666 5667 5667 5667
5652 5653 5653 5655 5656 5656 5656 5657 5656 5655 5654 5654 5656 5654 5656 5659 5659 5659 5658 5657 5657 5656 5656 5656 5655 5655 5655 5654 5654 5653 5653 5653 5652 5652 5652 5652 5652 5653 5653 5654 5654 5654 5655 5655
5643 5643 5643 5644 5645 5646 5646 5647 5646 5644 5643 5644 5645 5643 5646 5648 5648 5648 5647 5646 5645 5645 5645 5645 5644 5644 5643 5643 5642 5642 5642 5641 5641 5640 5640 5640 5640 5640 5641 5641 5642 5642 5643 5643
5634 5634 5635 5635 5635 5636 5637 5637 5637 5636 5635 5634 5634 5633 5638 5638 5637 5636 5636 5635 5634 5634 5634 5634 5633 5632 5632 5631 5631 5630 5630 5630 5629 5628 5628 5628 5628 5628 5629 5629 5630 5630 5631 5631
5625 5626 5626 5626 5626 5627 5626 5627 5628 5626 5624 5624 5623 5624 5626 5626 5626 5625 5625 5624 5623 5623 5622 5622 5621 5621 5620 5620 5619 5619 5618 5618 5617 5616 5616 5616 5616 5616 5617 5618 5618 5619 5619 5620
5616 5617 5617 5617 5617 5617 5617 5617 5617 5615 5614 5613 5613 5614 5616 5616 5615 5614 5613 5613 5612 5611 5610 5610 5609 5609 5608 5608 5607 5606 5606 5605 5605 5604 5604 5604 5604 5605 5606 5606 5607 5607 5608 5608
5607 5607 5608 5607 5607 5607 5608 5608 5606 5606 5605 5604 5602 5606 5605 5605 5604 5603 5602 5602 5601 5600 5599 5598 5598 5597 5597 5596 5595 5595 5595 5594 5593 5592 5592 5592 5593 5593 5594 5594 5595 5595 5595 5596
5598 5598 5597 5598 5598 5597 5597 5597 5597 5597 5595 5594 5593 5596 5594 5594 5593 5592 5591 5590 5589 5589 5588 5587 5587 5586 5585 5584 5584 5584 5583 5582 5582 5581 5581 5581 5581 5581 5582 5582 5582 5583 5583 5583
5589 5589 5588 5588 5590 5588 5587 5587 5587 5586 5585 5583 5583 5586 5584 5583 5582 5581 5580 5579 5578 5578 5577 5576 5575 5574 5573 5573 5572 5572 5571 5571 5570 5570 5570 5569 5569 5569 5569 5570 5570 5570 5570 5570
5579 5579 5580 5579 5578 5577 5577 5577 5576 5575 5573 5573 5573 5574 5574 5572 5571 5571 5569 5569 5568 5567 5566 5565 5564 5563 5562 5561 5560 5560 5560 5559 5559 5559 5558 5558 5558 5557 5557 5557 5557 5557 5557 5557
5569 5569 5569 5569 5568 5567 5567 5566 5565 5564 5564 5563 5563 5563 5563 5562 5561 5560 5559 5558 5557 5556 5555 5554 5553 5552 5551 5550 5549 5548 5548 5548 5547 5547 5547 5547 5546 5546 5545 5545 5545 5544 5544 5544
5560 5559 5559 5559 5558 5556 5556 5556 5555 5554 5553 5552 5551 5552 5552 5550 5549 5549 5548 5547 5546 5544 5543 5542 5541 5540 5539 5539 5538 5537 5537 5536 5536 5536 5535 5535 5534 5534 5534 5533 5532 5532 5531 5531
5550 5550 5549 5548 5548 5546 5546 5547 5545 5543 5543 5542 5541 5542 5540 5539 5538 5537 5537 5536 5534 5533 5532 5531 5530 5529 5528 5527 5526 5526 5525 5525 5525 5524 5524 5523 5523 5522 5522 5521 5520 5520 5519 5518
5541 5539 5538 5537 5537 5536 5539 5536 5534 5533 5532 5531 5530 5529 5529 5528 5527 5526 5525 5525 5523 5522 5521 5520 5519 5518 5516 5515 5515 5514 5514 5514 5513 5513 5513 5512 5511 5511 5510 5509 5508 5507 5506 5506
5532 5530 5528 5527 5526 5526 5528 5526 5524 5523 5523 5521 5520 5519 5518 5517 5516 5515 5514 5513 5512 5511 5510 5509 5507 5506 5505 5504 5503 5503 5502 5502 5502 5502 5501 5501 5500 5499 5498 5497 5496 5495 5494 5493
5523 5521 5520 5518 5517 5516 5518 5516 5514 5514 5513 5512 5510 5509 5508 5506 5506 5505 5503 5502 5501 5499 5498 5497 5496 5495 5494 5493 5492 5492 5491 5491 5491 5491 5490 5489 5488 5487 5486 5485 5484 5482 5481 5480
5514 5513 5511 5510 5508 5507 5508 5506 5505 5506 5505 5503 5501 5499 5498 5497 5496 5494 5492 5491 5490 5489 5487 5486 5485 5484 5483 5482 5481 5481 5481 5481 5480 5479 5479 5478 5477 5476 5475 5473 5472 5470 5469 5468
5506 5504 5503 5502 5500 5502 5499 5497 5497 5496 5494 5492 5491 5490 5488 5487 5485 5484 5482 5481 5479 5478 5477 5475 5474 5473 5472 5472 5471 5471 5470 5470 5469 5469 5468 5467 5466 5465 5463 5462 5460 5459 5457 5456
5498 5497 5495 5494 5494 5492 5490 5488 5487 5486 5484 5483 5481 5480 5479 5477 5476 5474 5472 5471 5469 5468 5467 5465 5464 5463 5462 5461 5460 5460 5460 5459 5459 5458 5457 5456 5455 5454 5453 5451 5450 5448 5446 5444
5491 5489 5487 5486 5485 5483 5481 5480 5479 5477 5475 5474 5472 5471 5469 5467 5466 5464 5463 5461 5459 5458 5457 5455 5454 5453 5452 5451 5450 5449 5449 5448 5448 5447 5446 5445 5444 5443 5442 5440 5438 5436 5434 5432
5483 5481 5479 5478 5477 5475 5473 5471 5470 5468 5466 5465 5463 5461 5459 5458 5456 5454 5453 5451 5449 5448 5447 5446 5444 5443 5442 5441 5440 5439 5438 5438 5437 5436 5435 5435 5434 5432 5431 5429 5427 5425 5423 5420
5475 5473 5472 5470 5468 5466 5465 5463 5461 5459 5457 5455 5453 5451 5449 5447 5446 5444 5443 5441 5440 5438 5437 5436 5435 5433 5432 5430 5429 5428 5427 5427 5426 5425 5424 5424 5423 5421 5420 5418 5416 5413 5411 5409